SES-17

Last updated on Tue Sep 22 2026 00:03:15 GMT+0000 (Coordinated Universal Time)

1 49332U 21095A 26263.97685398 -.00000276 00000+0 00000+0 0 9996 2 49332 0.0360 34.4936 0001744 135.1120 114.8359 1.00269846 18815
UTC large
Height (km)
Speed (km/s)
/
Latitude / Longitude
Inclination (degrees)
Orbital Period (minutes)
Azimuth
Elevation
Range (km)
Doppler Factor

Next 0 passes for location: London (51.5072 / 0.1276)

No passes found over London.
SES-17